STARLINK-35547, 66119

Orbit data source: Space-Track

STARLINK-35547, 66119 is a payload satellite owned by SpaceX/Seattle (US) in LEO that was launched on Wed, 22 Oct 2025 UTC via an FALCON 9 launch vehicle from the Air Force Western Test Range (AFWTR). Payload-class satellites include a variety of spacecraft equipped with specific instruments for various scientific and technological missions. These include communications satellites like Starlink; space stations such as the ISS; scientific satellites like the Hubble; Earth observation satellites from companies like Planet Labs, Umbra, and HawkEye 360; GPS; miniature CubeSats for education and research; and military/defense satellites.

Loading next visibility...
Identifier
66119, 2025-237F
Orbit
LEO
Country
Flag of USUS
Related business
Manufacturer
SpaceX/Seattle
Mission
Operational Commercial Communications
Bus & Motor
STARLINK V2MO, Unknown motor
Mass
575 kg wet, ~530 kg dry
Launch date (UTC)
2025-10-22 (8 months ago)
Launch vehicle
FALCON 9
Launch site
Air Force Western Test Range (AFWTR)
Object type
Payload
Rocket body
Debris
Shape & HBR
Box + 2 Pan, 17.7 m
Radar Cross Section
36.964 m², Large (>1 m²)

Expand to show TLE details & history
Last TLE update: 1 day ago

TLE from 1 day ago
0 STARLINK-35547
1 66119U 25237F   26170.59224336  .00022973  00000-0  78501-3 0  9999
2 66119  53.1599 286.2015 0001208  54.4753 305.6360 15.30214567 38211
Epoch: 2026-06-19T14:12Z
TLE epoch observation values (Epoch: 2026-06-19T14:12:49.826Z)
Latitude
-0.00004°
Longitude
165.17486°
Altitude
475.589 km
Speed
7.63 km/s
True Right ascension
19h 04m 48s
True Declination
0° 00' 00"
Sunlit
Object was in full shadow at epoch
Visualization orbit readout
Latitude
Unknown
Longitude
Unknown
Altitude
Unknown
Speed
Unknown
Apparent Right ascension
Unknown
Apparent Declination
Unknown
Sunlit
N/A
Visualization observer readout
Local Sidereal Time
07:24:42
Azimuth
Unknown
Elevation
Unknown
Doppler factor
Unknown
Orbital elements
Apogee altitude
476.256 km
Perigee altitude
474.6 km
Semi-major axis
6,853.565 km
Eccentricity
0.00012
Inclination
53.1599°
RAAN
286.2015°
Arg. of periapsis
54.4753°
True anomaly
305.62475°
Mean anomaly
305.636°
Eccentric anomaly
305.63037°
Mean motion
3.82533 °/min
Orbital period
94.11 mins
BSTAR
0.00078501
Loading maneuver chart data...
Computing Atmospheric mass density...
Loading historical data...
Loading historical data...
Loading historical data...
Loading historical data...
Loading historical data...
Loading historical data...
Loading historical data...

Documentation

Showing up to 5 results
|